カタログに戻る

FENGYUN 1C DEB

運用中PO
NORAD 38146·DEBRIS·🇨🇳 China

打ち上げ May 10, 1999 から Taiyuan Satellite Launch Center

Loading…

次のパス (今後24時間)

TLE

最新Source: Space-Track

元期: Sep 12, 2026, 02:17 UTC

1 38146U 99025EQT 26255.09530609  .00001872  00000-0  29699-3 0  9995
2 38146  99.4899  20.0971 0193583   1.1899 174.1118 14.62007760358707

AllMySatでFENGYUN 1C DEBをリアルタイム追跡

Download on the App Store